Yellow Mule RAWS (NWS)

Aggregated by Synoptic Data
Date/Time Wind Direction Wind Speed knots Wind Gust knots RH % Accumulated Precip Inches Air Temp Fahrenheit
2024-07-23 20:04 4 9 26 7.74 68
2024-07-23 19:04 6 12 22 7.74 73
2024-07-23 18:04 7 15 21 7.74 74
2024-07-23 17:04 8 14 21 7.74 74
2024-07-23 16:04 7 18 20 7.74 74
2024-07-23 15:04 4 10 35 7.74 71
2024-07-23 14:04 4 13 32 7.74 69
2024-07-23 13:04 3 15 32 7.74 71
2024-07-23 12:04 5 17 34 7.74 70
2024-07-23 11:04 4 10 35 7.74 72
2024-07-23 10:04 3 8 38 7.74 73
2024-07-23 09:04 3 8 40 7.74 65
2024-07-23 08:04 6 9 46 7.74 60
2024-07-23 07:04 8 10 43 7.74 59
2024-07-23 06:04 9 10 43 7.74 58
2024-07-23 05:04 8 10 44 7.74 56
2024-07-23 04:04 6 8 39 7.74 58
2024-07-23 03:04 2 4 38 7.74 58
2024-07-23 02:04 3 5 36 7.74 59
2024-07-23 01:04 3 3 36 7.74 59
2024-07-23 00:04 2 7 44 7.74 55
2024-07-22 23:04 3 6 35 7.74 60
2024-07-22 22:04 6 9 44 7.74 57
2024-07-22 21:04 3 12 43 7.74 58
2024-07-22 20:04 5 19 45 7.74 58
2024-07-22 19:04 8 16 59 7.73 56
2024-07-22 18:04 4 25 47 7.73 60
2024-07-22 17:04 21 29 50 7.73 60
2024-07-22 16:04 3 10 29 7.73 69
2024-07-22 15:04 3 10 32 7.73 71
2024-07-22 14:04 3 11 30 7.73 71
2024-07-22 13:04 3 11 39 7.73 68
2024-07-22 12:04 5 10 38 7.73 72
2024-07-22 11:04 4 7 38 7.73 69
2024-07-22 10:04 4 7 42 7.73 66
2024-07-22 09:04 4 7 46 7.73 61
2024-07-22 08:04 5 7 49 7.73 57
2024-07-22 07:04 6 8 50 7.73 54
2024-07-22 06:04 6 9 51 7.73 53
2024-07-22 05:04 6 10 49 7.73 54
2024-07-22 04:04 6 10 53 7.73 53
2024-07-22 03:04 6 7 56 7.73 53
2024-07-22 02:04 4 6 55 7.73 53
2024-07-22 01:04 3 4 50 7.73 55
2024-07-22 00:04 2 10 47 7.73 57
2024-07-21 23:04 3 12 48 7.73 57
2024-07-21 22:04 8 10 51 7.73 56